Location: Bishop�s Knoyle
(51.0728°N, 2.1714°W)
Time: 22:14:31
(UTC+00:00)

CENTAUR R/B - Pass Details

Date: 18 January 2021
Orbit: 742 x 1446 km, 63.5° (Epoch: 07 March)

Event Time Altitude Azimuth Distance (km) Brightness Sun altitude
Rises 07:01:40 0° 181° (S) 3,384 5.6 -9.4°
Reaches altitude 10° 07:04:17 10° 169° (S) 2,537 5.2 -9.0°
Maximum altitude 07:09:14 28° 112° (ESE) 1,729 4.9 -8.3°
Drops below altitude 10° 07:14:55 10° 56° (ENE) 2,948 5.5 -7.5°
Sets 07:18:11 0° 47° (NE) 4,035 6.0 -7.0°
